Time,TemperatureF,DewpointF,PressureIn,WindDirection,WindDirectionDegrees,WindSpeedMPH,WindSpeedGustMPH,Humidity,HourlyPrecipIn,Conditions,Clouds,dailyrainin,SoftwareType,DateUTC
2013-01-19 00:52:00,33.7,30.0,29.82,SSW,196,3.0,4.0,87,0.00,,,0.00,weatherlink.com 1.10,2013-01-19 06:52:00,
2013-01-19 01:04:00,33.4,30.0,29.82,SSW,205,3.0,4.0,87,0.00,,,0.00,weatherlink.com 1.10,2013-01-19 07:04:00,
2013-01-19 01:19:00,32.9,30.0,29.82,SSW,204,3.0,5.0,88,0.00,,,0.00,weatherlink.com 1.10,2013-01-19 07:19:00,
2013-01-19 01:34:00,33.0,30.0,29.82,SW,215,1.0,3.0,88,0.00,,,0.00,weatherlink.com 1.10,2013-01-19 07:34:00,
2013-01-19 01:49:00,32.6,30.0,29.81,SSW,197,2.0,3.0,89,0.00,,,0.00,weatherlink.com 1.10,2013-01-19 07:49:00,
2013-01-19 02:05:00,32.1,30.0,29.81,SSW,193,3.0,4.0,90,0.00,,,0.00,weatherlink.com 1.10,2013-01-19 08:05:00,
2013-01-19 02:20:00,32.0,29.0,29.80,SSW,193,2.0,4.0,90,0.00,,,0.00,weatherlink.com 1.10,2013-01-19 08:20:00,
2013-01-19 02:35:00,33.1,30.0,29.80,WSW,245,7.0,8.0,89,0.00,,,0.00,weatherlink.com 1.10,2013-01-19 08:35:00,
2013-01-19 02:50:00,33.7,30.0,29.79,WSW,243,0.0,3.0,87,0.00,,,0.00,weatherlink.com 1.10,2013-01-19 08:50:00,
2013-01-19 03:05:00,33.9,30.0,29.79,West,263,0.0,1.0,86,0.00,,,0.00,weatherlink.com 1.10,2013-01-19 09:05:00,
2013-01-19 03:20:00,34.5,31.0,29.79,SW,214,0.0,3.0,85,0.00,,,0.00,weatherlink.com 1.10,2013-01-19 09:20:00,
2013-01-19 03:35:00,34.7,31.0,29.79,SSW,211,7.0,10.0,85,0.00,,,0.00,weatherlink.com 1.10,2013-01-19 09:35:00,
2013-01-19 03:50:00,35.2,31.0,29.78,WSW,252,12.0,13.0,83,0.00,,,0.00,weatherlink.com 1.10,2013-01-19 09:50:00,
2013-01-19 04:05:00,35.7,30.0,29.78,SW,221,8.0,13.0,81,0.00,,,0.00,weatherlink.com 1.10,2013-01-19 10:05:00,
2013-01-19 04:20:00,36.7,30.0,29.78,West,270,9.0,17.0,77,0.00,,,0.00,weatherlink.com 1.10,2013-01-19 10:20:00,
2013-01-19 04:35:00,36.4,30.0,29.79,WNW,286,4.0,11.0,78,0.00,,,0.00,weatherlink.com 1.10,2013-01-19 10:35:00,
2013-01-19 04:50:00,36.1,30.0,29.79,WSW,255,8.0,9.0,78,0.00,,,0.00,weatherlink.com 1.10,2013-01-19 10:50:00,
2013-01-19 05:05:00,35.3,29.0,29.79,WSW,241,4.0,10.0,79,0.00,,,0.00,weatherlink.com 1.10,2013-01-19 11:05:00,
2013-01-19 06:50:00,34.5,28.0,29.81,WNW,297,8.0,14.0,78,0.00,,,0.00,weatherlink.com 1.10,2013-01-19 12:50:00,
2013-01-19 07:05:00,34.2,28.0,29.81,WNW,288,6.0,10.0,79,0.00,,,0.00,weatherlink.com 1.10,2013-01-19 13:05:00,
2013-01-19 07:20:00,33.4,29.0,29.80,West,270,12.0,13.0,82,0.00,,,0.00,weatherlink.com 1.10,2013-01-19 13:20:00,
2013-01-19 07:35:00,33.6,28.0,29.81,WNW,283,9.0,13.0,81,0.00,,,0.00,weatherlink.com 1.10,2013-01-19 13:35:00,
2013-01-19 07:50:00,33.3,28.0,29.80,West,262,9.0,13.0,81,0.00,,,0.00,weatherlink.com 1.10,2013-01-19 13:50:00,
2013-01-19 08:05:00,33.4,28.0,29.82,WNW,300,9.0,17.0,81,0.00,,,0.00,weatherlink.com 1.10,2013-01-19 14:05:00,
2013-01-19 08:20:00,33.5,28.0,29.82,West,278,12.0,20.0,80,0.00,,,0.00,weatherlink.com 1.10,2013-01-19 14:20:00,
2013-01-19 08:35:00,33.5,28.0,29.82,West,270,11.0,18.0,81,0.00,,,0.00,weatherlink.com 1.10,2013-01-19 14:35:00,
2013-01-19 08:50:00,34.1,29.0,29.84,WNW,290,13.0,20.0,80,0.00,,,0.00,weatherlink.com 1.10,2013-01-19 14:50:00,
2013-01-19 09:05:00,35.2,29.0,29.84,WNW,291,9.0,16.0,79,0.00,,,0.00,weatherlink.com 1.10,2013-01-19 15:05:00,
2013-01-19 09:20:00,35.9,30.0,29.86,WNW,295,10.0,19.0,78,0.00,,,0.00,weatherlink.com 1.10,2013-01-19 15:20:00,
2013-01-19 09:35:00,36.8,30.0,29.87,WNW,300,16.0,19.0,76,0.00,,,0.00,weatherlink.com 1.10,2013-01-19 15:35:00,
2013-01-19 09:50:00,37.6,31.0,29.87,WNW,297,14.0,20.0,76,0.00,,,0.00,weatherlink.com 1.10,2013-01-19 15:50:00,
2013-01-19 10:05:00,38.6,31.0,29.88,NW,304,8.0,19.0,75,0.00,,,0.00,weatherlink.com 1.10,2013-01-19 16:05:00,
2013-01-19 10:20:00,39.4,31.0,29.88,NW,310,14.0,22.0,73,0.00,,,0.00,weatherlink.com 1.10,2013-01-19 16:20:00,
2013-01-19 10:36:00,40.0,31.0,29.88,WNW,293,10.0,16.0,70,0.00,,,0.00,weatherlink.com 1.10,2013-01-19 16:36:00,
2013-01-19 10:51:00,40.3,31.0,29.89,NNW,328,14.0,22.0,70,0.00,,,0.00,weatherlink.com 1.10,2013-01-19 16:51:00,
2013-01-19 11:06:00,40.3,31.0,29.89,NW,311,18.0,20.0,70,0.00,,,0.00,weatherlink.com 1.10,2013-01-19 17:06:00,
2013-01-19 11:21:00,40.9,31.0,29.89,WNW,297,17.0,21.0,69,0.00,,,0.00,weatherlink.com 1.10,2013-01-19 17:21:00,
2013-01-19 11:36:00,40.6,32.0,29.89,NW,304,11.0,21.0,71,0.00,,,0.00,weatherlink.com 1.10,2013-01-19 17:36:00,
2013-01-19 12:06:00,43.3,33.0,29.89,WNW,290,12.0,22.0,66,0.00,,,0.00,weatherlink.com 1.10,2013-01-19 18:06:00,
2013-01-19 13:06:00,42.9,33.0,29.91,WNW,301,11.0,32.0,67,0.00,,,0.00,weatherlink.com 1.10,2013-01-19 19:06:00,
2013-01-19 13:36:00,41.7,31.0,29.92,WNW,302,24.0,34.0,67,0.00,,,0.00,weatherlink.com 1.10,2013-01-19 19:36:00,
2013-01-19 13:51:00,41.5,32.0,29.93,WNW,301,20.0,37.0,70,0.00,,,0.00,weatherlink.com 1.10,2013-01-19 19:51:00,
2013-01-19 14:06:00,41.1,32.0,29.94,NW,310,22.0,38.0,69,0.00,,,0.00,weatherlink.com 1.10,2013-01-19 20:06:00,
2013-01-19 14:36:00,39.9,32.0,29.95,NW,307,27.0,39.0,72,0.00,,,0.00,weatherlink.com 1.10,2013-01-19 20:36:00,
2013-01-19 14:51:00,39.8,32.0,29.95,WNW,298,27.0,34.0,73,0.00,,,0.00,weatherlink.com 1.10,2013-01-19 20:51:00,
2013-01-19 15:36:00,38.3,31.0,29.99,NW,315,26.0,36.0,75,0.00,,,0.00,weatherlink.com 1.10,2013-01-19 21:36:00,
2013-01-19 16:21:00,34.7,25.0,30.03,WNW,291,22.0,33.0,68,0.00,,,0.00,weatherlink.com 1.10,2013-01-19 22:21:00,
2013-01-19 16:51:00,33.0,23.0,30.05,NW,304,23.0,35.0,67,0.00,,,0.00,weatherlink.com 1.10,2013-01-19 22:51:00,
2013-01-19 17:07:00,31.7,21.0,30.06,NW,312,20.0,33.0,66,0.00,,,0.00,weatherlink.com 1.10,2013-01-19 23:07:00,
2013-01-19 17:22:00,29.5,21.0,30.08,NW,325,16.0,39.0,70,0.00,,,0.00,weatherlink.com 1.10,2013-01-19 23:22:00,
2013-01-19 17:37:00,27.9,20.0,30.10,NW,323,16.0,26.0,73,0.00,,,0.00,weatherlink.com 1.10,2013-01-19 23:37:00,
2013-01-19 18:07:00,25.7,18.0,30.11,WNW,302,22.0,34.0,74,0.00,,,0.00,weatherlink.com 1.10,2013-01-20 00:07:00,
2013-01-19 18:22:00,23.4,16.0,30.14,NNW,339,37.0,45.0,74,0.00,,,0.00,weatherlink.com 1.10,2013-01-20 00:22:00,
2013-01-19 18:29:00,21.6,15.2,30.15,NW,312,21.0,28.0,76,0.00,,,0.00,Wunderground v.1.15,2013-01-20 00:29:00,
2013-01-19 18:34:00,20.6,14.8,30.16,NW,308,29.0,31.0,78,0.00,,,0.00,Wunderground v.1.15,2013-01-20 00:34:00,
2013-01-19 18:53:00,17.8,10.0,30.18,NNW,335,20.0,38.0,72,0.00,,,0.00,weatherlink.com 1.10,2013-01-20 00:53:00,
2013-01-19 19:08:00,16.7,10.0,30.19,North,7,22.0,34.0,74,0.00,,,0.00,weatherlink.com 1.10,2013-01-20 01:08:00,
2013-01-19 19:23:00,15.8,9.0,30.21,WNW,293,18.0,35.0,74,0.00,,,0.00,weatherlink.com 1.10,2013-01-20 01:23:00,
2013-01-19 19:34:00,15.1,7.1,30.21,NW,316,34.0,34.0,70,0.00,,,0.00,Wunderground v.1.15,2013-01-20 01:34:00,
2013-01-19 19:54:00,13.6,6.0,30.23,NW,314,18.0,33.0,70,0.00,,,0.00,weatherlink.com 1.10,2013-01-20 01:54:00,
2013-01-19 20:09:00,12.6,4.0,30.24,NW,318,17.0,41.0,69,0.00,,,0.00,weatherlink.com 1.10,2013-01-20 02:09:00,
2013-01-19 20:24:00,11.7,3.0,30.25,WNW,297,22.0,34.0,67,0.00,,,0.00,weatherlink.com 1.10,2013-01-20 02:24:00,
2013-01-19 20:39:00,11.2,3.0,30.25,NW,318,16.0,31.0,68,0.00,,,0.00,weatherlink.com 1.10,2013-01-20 02:39:00,
2013-01-19 21:09:00,9.8,2.0,30.27,NNW,327,21.0,33.0,70,0.00,,,0.00,weatherlink.com 1.10,2013-01-20 03:09:00,
2013-01-19 21:24:00,9.5,1.0,30.27,NW,325,21.0,38.0,68,0.00,,,0.00,weatherlink.com 1.10,2013-01-20 03:24:00,
2013-01-19 21:39:00,8.9,0.0,30.29,NW,323,21.0,34.0,68,0.00,,,0.00,weatherlink.com 1.10,2013-01-20 03:39:00,
2013-01-19 21:54:00,8.6,1.0,30.28,NW,313,20.0,28.0,70,0.00,,,0.00,weatherlink.com 1.10,2013-01-20 03:54:00,
2013-01-19 22:09:00,8.1,1.0,30.29,NNW,333,23.0,28.0,71,0.00,,,0.00,weatherlink.com 1.10,2013-01-20 04:09:00,
2013-01-19 22:24:00,7.8,1.0,30.30,NW,326,14.0,25.0,72,0.00,,,0.00,weatherlink.com 1.10,2013-01-20 04:24:00,
2013-01-19 22:39:00,7.2,-1.0,30.32,NW,312,14.0,25.0,70,0.00,,,0.00,weatherlink.com 1.10,2013-01-20 04:39:00,
2013-01-19 22:54:00,6.6,-1.0,30.32,NW,307,10.0,23.0,71,0.00,,,0.00,weatherlink.com 1.10,2013-01-20 04:54:00,
2013-01-19 23:10:00,6.2,-1.0,30.33,NW,315,16.0,21.0,71,0.00,,,0.00,weatherlink.com 1.10,2013-01-20 05:10:00,
2013-01-19 23:25:00,5.9,-1.0,30.33,NW,321,18.0,22.0,72,0.00,,,0.00,weatherlink.com 1.10,2013-01-20 05:25:00,
2013-01-19 23:40:00,5.7,-2.0,30.35,NNW,345,16.0,21.0,72,0.00,,,0.00,weatherlink.com 1.10,2013-01-20 05:40:00,
2013-01-19 23:55:00,5.3,-2.0,30.34,NNW,331,14.0,19.0,73,0.00,,,0.00,weatherlink.com 1.10,2013-01-20 05:55:00,